GW2721 Weather Reports


time (UTC)temp
F
wind
direction
speed
knots
gust
knots
rain 1hr
in
rain 24hr
in
rain mn
in
humidity
%
barometer
mb
20260504081518 47 237 0.0 0.0 0.00 0.00 0.00 81 1014.8
20260504060109 44 237 0.0 0.0 0.00 0.00 0.00 81 1015.2
20260504044653 43 237 0.0 0.0 0.00 0.00 0.00 74 1015.3
20260504043034 43 237 0.0 0.0 0.00 0.00 0.00 72 1015.3
20260504041628 44 237 0.0 0.0 0.00 0.00 0.00 70 1015.2
20260504040123 44 237 0.0 0.0 0.00 0.00 0.00 69 1015.3
20260504033018 45 237 0.0 0.0 0.00 0.00 0.00 66 1015.1
20260504031552 46 237 0.0 0.0 0.00 0.00 0.00 65 1015.0
20260504030032 46 237 0.0 0.0 0.00 0.00 0.00 64 1014.9
20260504024510 47 237 0.0 0.0 0.00 0.00 0.00 62 1014.8
20260504023055 48 237 0.0 0.0 0.00 0.00 0.00 61 1014.7
20260504021532 49 237 0.0 0.0 0.00 0.00 0.00 59 1014.8
20260504020158 50 237 0.0 0.0 0.00 0.00 0.00 57 1014.7
20260504014538 50 237 0.0 0.0 0.00 0.00 0.00 55 1014.6
20260504013107 52 237 0.0 0.0 0.00 0.00 0.00 52 1014.6
20260504011534 53 237 0.0 0.0 0.00 0.00 0.00 49 1014.5
20260504004652 56 237 0.0 0.0 0.00 0.00 0.00 43 1014.4
20260504001620 60 237 0.0 0.0 0.00 0.00 0.00 36 1014.0
20260504000145 61 237 0.0 0.0 0.00 0.00 0.00 31 1013.9
20260503233002 63 247 0.0 0.0 0.00 0.00 0.00 29 1013.7
20260503231536 63 252 0.0 0.0 0.00 0.00 0.00 28 1013.6
20260503230017 64 254 0.0 0.0 0.00 0.00 0.00 28 1013.5
20260503223030 65 279 0.0 0.9 0.00 0.00 0.00 28 1013.7
20260503221601 64 287 0.0 0.0 0.00 0.00 0.00 28 1013.7
20260503220030 64 263 0.0 0.0 0.00 0.00 0.00 27 1013.8
20260503214532 64 271 0.0 0.0 0.00 0.00 0.00 27 1013.9
20260503211633 65 271 0.0 0.0 0.00 0.00 0.00 27 1013.6
20260503210111 65 315 0.0 0.0 0.00 0.00 0.00 27 1014.0
20260503204557 65 313 0.0 0.0 0.00 0.00 0.00 30 1013.8
20260503201512 63 350 0.0 0.0 0.00 0.00 0.00 30 1014.3
20260503200135 64 232 0.0 0.9 0.00 0.00 0.00 31 1014.4
20260503193108 63 252 0.0 0.0 0.00 0.00 0.00 31 1014.8
20260503191549 62 259 0.0 0.0 0.00 0.00 0.00 32 1015.0
20260503190129 62 283 0.0 0.0 0.00 0.00 0.00 34 1015.2
20260503184620 62 260 0.0 0.0 0.00 0.00 0.00 32 1015.6
20260503183014 61 199 0.0 0.0 0.00 0.00 0.00 34 1015.6
20260503180028 59 304 0.0 0.0 0.00 0.00 0.00 36 1015.8
20260503173108 58 288 0.0 0.9 0.00 0.00 0.00 36 1016.0
20260503173001 58 319 0.0 0.9 0.00 0.00 0.00 34 1016.0
20260503171537 59 260 0.0 0.0 0.00 0.00 0.00 33 1016.0